Simultaneous Nadir Overpasses (SNOs) Predictions

Prediction of SNOs between GOES-16 and AQUA Satellite Orbit:

Table of predicted SNOs for the next 14.0 days since TLE Epoch: 6/29/2024
Index Date Time (GOES-16) GOES-16 Lat,Lon AQUA Lat,Lon Distance(km) Time Diff (sec)
1 06/30/2024 19:10:30 -0.04, -75.21 -0.00, -75.08 14.35 80
2 07/02/2024 18:53:49 -0.03, -75.22 0.87, -71.00 479.18 80
3 07/03/2024 07:16:34 0.03, -75.22 0.19, -75.86 72.90 80
4 07/05/2024 06:57:13 0.02, -75.24 -0.76, -71.79 393.01 80
5 07/05/2024 19:20:07 -0.02, -75.24 -0.30, -76.68 163.73 80
6 07/07/2024 19:00:43 -0.01, -75.27 0.54, -72.59 303.89 80
7 07/08/2024 07:23:27 0.01, -75.28 0.49, -77.45 247.37 80
8 07/10/2024 07:04:04 0.01, -75.31 -0.42, -73.36 222.06 80
9 07/10/2024 19:26:56 -0.01, -75.32 -0.65, -78.25 333.75 80
10 07/12/2024 19:07:30 -0.01, -75.36 0.22, -74.15 137.25 80
